Regional Weather Roundup
Issued by NWS

Home | Current Version | Previous Version | Graphics & Text | Print | Product List | Glossary On
Versions: 1 2 3 4 5 6 7 8 9 10 11 12 13 14 15 16 17 18 19 20 21 22 23 24 25 26 27 28 29 30 31 32 33 34 35 36 37 38 39 40 41 42 43 44 45 46 47 48 49 50
000
ASUS45 KABQ 280401
RWRNM
NEW MEXICO REGIONAL WEATHER ROUNDUP
NATIONAL WEATHER SERVICE ALBUQUERQUE NM
1000 PM MDT MON MAR 27 2017

NOTE: "FAIR" MEANS FEW OR NO CLOUDS BELOW 12,000 FEET AGL WITH NO
       SIGNIFICANT WEATHER OR OBSTRUCTIONS TO VISION.

      THIS PRODUCT IS RELEASED AS TWO VERSIONS.  ONE VERSION NEAR
      THE TOP OF THE HOUR CONTAINING PRELIMINARY DATA FROM ALBUQUERQUE
      AND OTHER STATIONS.  A FINAL VERSION WITH ADDITIONAL DATA IS
      ISSUED ABOUT 10 MINUTES AFTER THE HOUR.

NMZ501-503-504-510>518-280500-
NORTHWEST PLATEAU/NORTHCENTRAL MOUNTAINS

CITY           SKY/WX    TMP DP  RH WIND       PRES   REMARKS
FARMINGTON     CLOUDY    48  36  63 SE8       29.84R
LOS ALAMOS     CLOUDY    42  38  86 E6        29.94S
SANTA FE       CLOUDY    49  38  65 N6        29.89S
TAOS             N/A     43  32  65 N5        29.95R
ANGEL FIRE     CLOUDY    38  32  80 S6        29.97S WCI  33

$$
NMZ402-403-502-505>509-280500-
WESTCENTRAL MOUNTAINS/SOUTHWEST MOUNTAINS

CITY           SKY/WX    TMP DP  RH WIND       PRES   REMARKS
GALLUP         CLOUDY    47  32  56 S7        29.87R
GRANTS         FAIR      39  32  74 SW14      29.92R WCI  31
SILVER CITY    CLOUDY    57  29  34 NW7       29.89R

$$
NMZ407-409-411-412-280500-
SOUTHERN DESERTS

CITY           SKY/WX    TMP DP  RH WIND       PRES   REMARKS
DEMING         FAIR      65  29  25 W10       29.84R
LAS CRUCES     FAIR      66  25  21 W20G28    29.83R
HOLLOMAN AFB   CLOUDY    69  24  18 S9        29.83R
ALAMOGORDO     MOCLDY    68  27  21 S10       29.81R
T OR C         FAIR      64  26  23 W10       29.82R

$$
NMZ519>523-280500-
CENTRAL VALLEYS/CENTRAL HIGHLANDS

CITY           SKY/WX    TMP DP  RH WIND       PRES   REMARKS
ALBUQUERQUE    MOCLDY    54  37  52 N8        29.87R
DOUBLE EAGLE   CLOUDY    46  37  71 NW6       29.89R
MORIARTY ARPT  CLOUDY    49  32  50 NE3       29.90R
CLINES CORNERS CLOUDY    49  29  46 W9        29.92R
BELEN          CLOUDY    55  34  45 NE9       29.87R
SOCORRO        CLOUDY    60  31  33 NE7       29.83S

$$
NMZ524>526-539-540-280500-
SOUTHCENTRAL MOUNTAINS

CITY           SKY/WX    TMP DP  RH WIND       PRES   REMARKS
RUIDOSO        NOT AVBL

$$
NMZ527>531-280500-
NORTHEAST HIGHLANDS/NORTHEAST PLAINS

CITY           SKY/WX    TMP DP  RH WIND       PRES   REMARKS
LAS VEGAS      CLOUDY    53  26  35 S9        29.88S
RATON          CLOUDY    50  34  54 NE3       29.86R
CLAYTON        FAIR      55  36  48 SE14      29.85S

$$
NMZ532>537-280500-
EASTCENTRAL PLAINS

CITY           SKY/WX    TMP DP  RH WIND       PRES   REMARKS
TUCUMCARI      MOCLDY    64  31  28 SE10      29.79R
CANNON AFB     FAIR      55  32  41 SE10      29.84R
CLOVIS AIRPORT FAIR      57  30  35 SE15      29.85S

$$
NMZ028-029-538-280500-
SOUTHEAST PLAINS

CITY           SKY/WX    TMP DP  RH WIND       PRES   REMARKS
ROSWELL        FAIR      69  19  15 SW8         N/A
ARTESIA        FAIR      72  28  20 S14       29.80R
CARLSBAD       FAIR      59  28  30 S9        29.79R
HOBBS          FAIR      57  25  28 E8        29.85R


$$



USA.gov is the U.S. government's official web portal to all federal, state and local government web resources and services.